Location: Vihti�l�
(61.3833°N, 23.0667°E)
Time: 04:46:29
(UTC+00:00)

CZ-2C R/B - Pass Details

Date: 29 November 2020
Orbit: 668 x 784 km, 98.2° (Epoch: 19 January)

Event Time Altitude Azimuth Distance (km) Brightness Sun altitude
Rises 06:06:18 0° 20° (NNE) 3,065 5.5 -6.7°
Reaches altitude 10° 06:10:54 10° 338° (NNW) 2,124 4.3 -6.2°
Maximum altitude 06:11:25 10° 332° (NNW) 2,111 4.2 -6.2°
Drops below altitude 10° 06:11:55 10° 326° (NW) 2,120 4.2 -6.1°
Enters shadow 06:13:46 - 305° (NW) 2,335 4.3 -6.0°
